Location: Petruro
(41.0333°N, 14.7833°E)
Time: 14:10:56
(UTC+00:00)

DELTA 2 R/B (1) - Pass Details

Date: 01 November 2021
Orbit: 791 x 802 km, 39.6° (Epoch: 04 December)

Event Time Altitude Azimuth Distance (km) Brightness Sun altitude
Rises 19:13:22 0° 270° (W) 3,301 7.7 -37.4°
Reaches altitude 10° 19:15:51 10° 269° (W) 2,369 6.7 -37.9°
Enters shadow 19:18:02 24° 267° (W) 1,587 5.6 -38.3°
